Weather reports worldwide

Advertisment
Lerida, Spain (8171): temperature & dewpoint: 29.06.2020 13:00:00 - 05.07.2020 13:00:00 (CEST)Lerida, Spain (8171): wind speed: 29.06.2020 13:00:00 - 05.07.2020 13:00:00 (CEST)Lerida, Spain (8171): wind direction: 29.06.2020 13:00:00 - 05.07.2020 13:00:00 (CEST)Lerida, Spain (8171): reduced air pressure: 29.06.2020 13:00:00 - 05.07.2020 13:00:00 (CEST)Lerida, Spain (8171): visibility: 29.06.2020 13:00:00 - 05.07.2020 13:00:00 (CEST)Lerida, Spain (8171): precipitation: 29.06.2020 13:00:00 - 05.07.2020 13:00:00 (CEST)
Date & Time tt [°C] td [°C] ff [km/h] ff [kn] dd ppp [hPa] vv [km] rr [mm]
05.07.2020 13:00:00 28,1 12,0 5 3 SSW 1020,2 19 0,0
05.07.2020 12:00:00 26,4 10,5 8 4 SW 1021,0 20 0,0
05.07.2020 11:00:00 24,5 10,4 5 3 S 1021,3 19 -
05.07.2020 10:00:00 22,6 11,9 4 2 SSW 1021,6 20 0,0
05.07.2020 09:00:00 21,1 11,1 4 2 SSE 1021,6 20 0,0
05.07.2020 08:00:00 18,4 13,9 5 3 ENE 1021,4 19 -
05.07.2020 07:00:00 16,6 12,9 5 3 NE 1021,3 20 0,0
05.07.2020 06:00:00 17,2 13,1 5 3 NNE 1020,9 19 0,0
05.07.2020 05:00:00 17,7 13,2 5 3 NE 1020,8 20 -
05.07.2020 04:00:00 18,3 13,2 5 3 NE 1020,8 19 0,0
05.07.2020 03:00:00 19,0 13,6 5 3 NE 1021,1 20 0,0
05.07.2020 02:00:00 19,5 14,3 8 4 NNE 1021,4 20 -
05.07.2020 01:00:00 20,4 14,1 8 4 NNE 1021,3 20 0,0
05.07.2020 00:00:00 22,2 13,0 5 3 N 1020,9 20 0,0
04.07.2020 23:00:00 23,2 13,4 4 2 NNE 1020,4 20 -
04.07.2020 22:00:00 25,1 12,7 2 1 SE 1019,2 20 0,0
04.07.2020 21:00:00 28,1 12,4 2 1 S 1018,9 20 0,0
04.07.2020 20:00:00 29,8 10,8 5 3 SW 1018,5 20 -
04.07.2020 19:00:00 30,1 10,6 8 4 SW 1018,4 20 0,0
04.07.2020 18:00:00 29,7 10,3 9 5 WSW 1019,0 20 0,0
04.07.2020 17:00:00 28,7 10,4 8 4 SW 1019,7 20 -
04.07.2020 16:00:00 28,0 10,2 9 5 W 1020,3 20 0,0
04.07.2020 15:00:00 26,6 10,7 9 5 WSW 1021,0 20 0,0
04.07.2020 14:00:00 25,1 11,6 8 4 W 1021,9 20 -
04.07.2020 13:00:00 23,1 10,2 5 3 SW 1022,5 20 0,0
04.07.2020 12:00:00 21,6 10,4 5 3 SSW 1023,0 20 0,0
04.07.2020 11:00:00 20,0 10,4 9 5 WSW 1023,1 16 -
04.07.2020 10:00:00 18,8 10,1 9 5 WSW 1023,5 20 0,0
04.07.2020 09:00:00 16,9 10,3 11 6 SW 1023,1 19 0,0
04.07.2020 08:00:00 14,9 10,1 5 3 WSW 1023,1 20 -
04.07.2020 07:00:00 13,1 9,5 5 3 SSW 1022,8 20 0,0
04.07.2020 06:00:00 13,8 9,4 8 4 WSW 1022,2 20 0,0
04.07.2020 05:00:00 14,6 9,8 9 5 SW 1021,9 20 -
04.07.2020 04:00:00 15,7 9,6 8 4 WSW 1021,7 20 0,0
04.07.2020 03:00:00 16,7 9,9 5 3 SW 1021,3 20 0,0
04.07.2020 02:00:00 18,4 9,7 8 4 W 1020,9 20 -
04.07.2020 01:00:00 19,7 9,6 11 6 WSW 1020,4 20 0,0
04.07.2020 00:00:00 20,7 9,3 5 3 WSW 1020,0 20 0,0
03.07.2020 23:00:00 21,6 8,8 9 5 W 1019,2 20 -
03.07.2020 22:00:00 23,9 9,5 5 3 SW 1017,9 20 0,0
03.07.2020 21:00:00 27,0 8,4 9 5 W 1017,1 20 0,0
03.07.2020 20:00:00 29,4 9,0 9 5 W 1016,5 20 -
03.07.2020 19:00:00 29,8 7,7 15 8 W 1016,3 20 0,0
03.07.2020 18:00:00 29,5 7,4 15 8 WSW 1016,5 20 0,0
03.07.2020 17:00:00 29,2 10,3 15 8 WSW 1017,0 20 -
03.07.2020 16:00:00 28,5 10,7 13 7 SW 1017,5 20 0,0
03.07.2020 15:00:00 27,6 11,6 9 5 WSW 1018,2 20 0,0
03.07.2020 14:00:00 26,3 11,2 13 7 W 1018,8 20 -
03.07.2020 13:00:00 24,7 12,0 16 9 W 1019,6 20 0,0
03.07.2020 12:00:00 23,5 12,2 13 7 W 1019,8 20 0,0
03.07.2020 11:00:00 21,9 11,9 16 9 W 1019,9 40 -
03.07.2020 10:00:00 20,5 11,9 13 7 WSW 1019,9 20 0,0
03.07.2020 09:00:00 19,6 10,8 16 9 W 1019,8 20 0,0
03.07.2020 08:00:00 18,3 12,3 8 4 W 1019,4 20 -
03.07.2020 07:00:00 18,1 12,5 5 3 WSW 1019,0 20 0,0
03.07.2020 06:00:00 18,4 11,7 9 5 WSW 1018,8 20 0,0
03.07.2020 05:00:00 18,7 12,2 11 6 SW 1018,7 20 -
03.07.2020 04:00:00 19,1 12,1 15 8 SW 1018,2 20 0,0
03.07.2020 03:00:00 19,7 12,7 13 7 SW 1017,7 20 0,0
03.07.2020 02:00:00 20,4 13,4 13 7 SW 1017,2 20 -
03.07.2020 01:00:00 21,8 15,4 11 6 W 1016,7 10 0,4
03.07.2020 00:00:00 23,6 13,5 13 7 WSW 1015,2 20 0,0
02.07.2020 23:00:00 25,2 13,7 13 7 WSW 1014,4 20 -
02.07.2020 22:00:00 27,1 19,7 16 9 SSW 1012,7 20 0,0
02.07.2020 21:00:00 29,5 19,5 9 5 SSW 1011,5 20 0,0
02.07.2020 20:00:00 32,5 15,9 8 4 W 1011,0 20 -
02.07.2020 19:00:00 32,4 17,1 9 5 WSW 1011,0 20 0,0
02.07.2020 18:00:00 32,3 17,4 8 4 WSW 1011,1 20 0,0
02.07.2020 17:00:00 31,9 17,0 8 4 W 1011,6 20 -
02.07.2020 16:00:00 31,5 17,8 9 5 WSW 1012,2 20 0,0
02.07.2020 15:00:00 30,6 17,7 9 5 SSW 1012,9 20 0,0
02.07.2020 14:00:00 29,7 17,2 11 6 SW 1014,0 20 -
02.07.2020 13:00:00 28,5 17,7 13 7 WSW 1014,4 20 0,0
02.07.2020 12:00:00 27,2 18,2 9 5 SSW 1014,7 20 0,0
02.07.2020 11:00:00 25,6 17,5 5 3 WSW 1014,9 25 -
02.07.2020 10:00:00 24,1 17,6 9 5 WSW 1015,1 20 0,0
02.07.2020 09:00:00 22,8 17,0 9 5 SW 1014,8 20 0,0
02.07.2020 08:00:00 21,6 17,0 8 4 SW 1014,3 20 -
02.07.2020 07:00:00 21,1 17,3 4 2 SSW 1014,2 20 0,0
02.07.2020 06:00:00 21,9 17,7 8 4 SW 1013,9 20 0,0
02.07.2020 05:00:00 23,3 18,8 5 3 S 1013,2 20 -
02.07.2020 04:00:00 23,5 18,8 4 2 ENE 1013,1 19 0,0
02.07.2020 03:00:00 24,1 19,2 4 2 NE 1012,9 20 0,0
02.07.2020 02:00:00 24,8 19,2 4 2 ESE 1012,8 20 -
02.07.2020 01:00:00 25,5 19,9 4 2 NNW 1012,2 20 0,0
02.07.2020 00:00:00 26,4 19,3 5 3 WSW 1011,1 20 0,0
01.07.2020 23:00:00 27,9 19,4 8 4 WSW 1010,5 20 -
01.07.2020 22:00:00 29,7 19,4 16 9 W 1009,6 20 0,0
01.07.2020 21:00:00 31,7 19,3 4 2 W 1008,4 20 0,0
01.07.2020 20:00:00 34,5 16,8 5 3 SW 1007,8 30 -
01.07.2020 19:00:00 35,6 16,4 8 4 W 1007,7 20 0,0
01.07.2020 18:00:00 35,4 15,7 8 4 WSW 1008,2 20 0,0
01.07.2020 17:00:00 34,9 16,7 8 4 SSW 1008,6 20 -
01.07.2020 16:00:00 33,9 16,7 4 2 S 1008,9 20 0,0
01.07.2020 15:00:00 32,8 17,8 5 3 WSW 1009,5 20 0,0
01.07.2020 14:00:00 31,8 18,0 4 2 SW 1010,1 30 -
01.07.2020 13:00:00 30,7 16,7 5 3 S 1010,5 19 0,0
01.07.2020 12:00:00 28,8 16,0 4 2 WSW 1011,0 20 0,0
01.07.2020 11:00:00 27,0 17,8 4 2 WNW 1011,2 20 -
01.07.2020 10:00:00 25,2 19,1 4 2 NE 1011,5 20 0,0
01.07.2020 09:00:00 23,0 19,0 8 4 ENE 1011,4 19 0,0
01.07.2020 08:00:00 21,2 18,6 5 3 NNE 1011,3 19 -
01.07.2020 07:00:00 19,8 17,9 5 3 NNW 1011,3 19 0,0
01.07.2020 06:00:00 19,8 18,3 5 3 NE 1011,1 18 0,0
01.07.2020 05:00:00 20,3 18,4 5 3 NE 1011,1 18 -
01.07.2020 04:00:00 21,0 18,4 8 4 NNE 1011,2 19 0,0
01.07.2020 03:00:00 21,3 18,9 9 5 NNE 1011,3 19 0,0
01.07.2020 02:00:00 21,9 20,2 8 4 N 1011,9 18 -
01.07.2020 01:00:00 22,5 19,9 8 4 SSW 1012,2 18 0,4
01.07.2020 00:00:00 23,0 19,6 16 9 E 1011,8 14 2,0
30.06.2020 23:00:00 26,2 17,6 5 3 ENE 1012,3 20 -
30.06.2020 22:00:00 27,0 16,6 5 3 E 1010,6 20 0,0
30.06.2020 21:00:00 28,0 17,8 8 4 S 1010,8 19 0,0
30.06.2020 20:00:00 29,9 18,7 11 6 S 1010,1 30 -
30.06.2020 19:00:00 31,8 19,1 15 8 S 1010,1 20 0,0
30.06.2020 18:00:00 32,3 18,9 13 7 S 1010,5 20 0,0
30.06.2020 17:00:00 33,0 20,5 13 7 S 1010,9 20 -
30.06.2020 16:00:00 32,4 20,3 5 3 SSE 1011,5 20 0,0
30.06.2020 15:00:00 31,3 20,3 8 4 ENE 1012,3 20 0,0
30.06.2020 14:00:00 30,0 19,7 4 2 ENE 1013,0 20 -
30.06.2020 13:00:00 29,2 19,2 4 2 NNE 1013,9 19 0,0
30.06.2020 12:00:00 27,4 18,9 5 3 W 1014,6 19 0,0
30.06.2020 11:00:00 25,8 18,5 5 3 SSW 1015,1 20 -
30.06.2020 10:00:00 23,1 16,4 4 2 WSW 1015,6 20 0,0
30.06.2020 09:00:00 22,2 17,1 5 3 SW 1015,6 20 0,0
30.06.2020 08:00:00 22,2 19,2 2 1 ENE 1015,3 17 -
30.06.2020 07:00:00 21,4 19,3 4 2 NNE 1015,3 15 0,0
30.06.2020 06:00:00 21,0 18,9 5 3 NNE 1015,2 13 0,0
30.06.2020 05:00:00 21,4 19,1 5 3 NNE 1015,1 16 -
30.06.2020 04:00:00 22,1 19,3 5 3 NNE 1015,2 17 0,0
30.06.2020 03:00:00 22,6 19,4 4 2 N 1015,4 18 0,0
30.06.2020 02:00:00 23,0 19,6 4 2 NNE 1015,7 17 -
30.06.2020 01:00:00 23,9 19,8 5 3 NNE 1015,6 18 0,0
30.06.2020 00:00:00 24,7 20,0 4 2 NNE 1015,4 20 0,0
29.06.2020 23:00:00 25,4 19,5 5 3 SE 1014,7 20 -
29.06.2020 22:00:00 26,5 19,6 9 5 S 1013,6 19 0,0
29.06.2020 21:00:00 28,4 20,4 11 6 S 1013,1 20 0,0
29.06.2020 20:00:00 30,7 20,0 15 8 SSW 1012,6 20 -
29.06.2020 19:00:00 33,0 20,9 11 6 S 1012,4 20 0,0
29.06.2020 18:00:00 33,9 17,2 9 5 W 1012,7 20 0,0
29.06.2020 17:00:00 33,5 17,6 8 4 SSW 1013,2 20 -
29.06.2020 16:00:00 32,7 18,1 8 4 WSW 1013,9 20 0,0
29.06.2020 15:00:00 31,4 18,7 8 4 SW 1014,8 19 0,0
29.06.2020 14:00:00 30,0 18,1 9 5 SW 1015,6 20 -
29.06.2020 13:00:00 28,5 18,3 8 4 SSW 1016,3 19 0,0

tt = temperature
td = dewpoint
ff = wind speed
dd = wind direction
ppp = reduced air pressure
vv = visibility
rr = precipitation

Next stations